Weather History for Point Mugu, CA

Change the Weather History Date:

Thursday, January 17, 2013

  Actual Average Record
Temperature  
Mean Temperature 72 °F -  
Max Temperature 81 °F 61 °F 87 °F (2014)
Min Temperature 62 °F 45 °F 36 °F (2007)
Cooling Degree Days 6    
Growing Degree Days 22 (Base 50)    
Moisture  
Dew Point 31 °F    
Average Humidity 32    
Maximum Humidity 87    
Minimum Humidity 11    
Precipitation  
Precipitation 0.00 in - - ()
Sea Level Pressure  
Sea Level Pressure 30.13 in    
Wind  
Wind Speed 15 mph (NE)    
Max Wind Speed 24 mph    
Max Gust Speed 32 mph    
Visibility 7 miles    
Events      
Averages and records for this station are not official NWS values.
T = Trace of Precipitation, MM = Missing Value Source: NWS Daily Summary

Daily Weather History Graph

Daily Weather History Graph

Search for Another Location

Airport:

Trip Planner

Search our weather history database for the weather conditions in past years. The results will help you decide how hot, cold, wet, or windy it might be!

Date:

Astronomy

Jan. 17, 2013 Rise Set
Actual Time 7:01 AM PST 5:12 PM PST
Civil Twilight 6:34 AM PST 5:39 PM PST
Nautical Twilight 6:03 AM PST 6:10 PM PST
Astronomical Twilight 5:33 AM PST 6:40 PM PST
Moon 10:30 AM PST (1/17) 11:47 PM PST (1/17)
Length of Visible Light 11h 05m
Length of Day
10h 11m
Waxing Crescent, 39% of the Moon is Illuminated
Jan 17
Waxing Crescent
Jan 18
First Quarter
Jan 26
Full
Feb 3
Last Quarter
Feb 9
New

Hourly Weather History & Observations

Time (PST) Temp. Dew Point Humidity Pressure Visibility Wind Dir Wind Speed Gust Speed Precip Events Conditions
12:54 AM 64.0 °F 59.0 °F 84% 30.14 in - NE 15.0 mph - N/A   Clear
1:54 AM 63.0 °F 57.9 °F 84% 30.15 in - NE 13.8 mph 20.7 mph N/A   Clear
2:54 AM 64.0 °F 60.1 °F 87% 30.15 in - NE 12.7 mph 25.3 mph N/A   Clear
3:54 AM 64.0 °F 59.0 °F 84% 30.15 in - NE 15.0 mph 24.2 mph N/A   Clear
4:54 AM 64.0 °F 59.0 °F 84% 30.13 in - NE 18.4 mph 25.3 mph N/A   Clear
5:54 AM 62.6 °F 20.5 °F 20% 30.13 in 7.0 mi NE 16.1 mph 26.5 mph N/A   Clear
6:54 AM 62.1 °F 19.6 °F 19% 30.14 in 7.0 mi ENE 13.8 mph 24.2 mph N/A   Scattered Clouds
7:54 AM 64.0 °F 19.4 °F 18% 30.16 in 7.0 mi ENE 16.1 mph 25.3 mph N/A   Partly Cloudy
8:54 AM 69.1 °F 19.8 °F 15% 30.18 in 7.0 mi NE 12.7 mph 23.0 mph N/A   Scattered Clouds
9:54 AM 72.0 °F 21.0 °F 15% 30.18 in 7.0 mi NE 17.3 mph 27.6 mph N/A   Scattered Clouds
10:54 AM 75.0 °F 21.4 °F 13% 30.16 in 7.0 mi NE 13.8 mph 24.2 mph N/A   Scattered Clouds
11:54 AM 75.9 °F 21.7 °F 13% 30.12 in 7.0 mi NE 24.2 mph 32.2 mph N/A   Partly Cloudy
12:54 PM 78.1 °F 21.6 °F 12% 30.09 in 7.0 mi NE 19.6 mph 29.9 mph N/A   Partly Cloudy
1:54 PM 78.1 °F 20.7 °F 12% 30.07 in 7.0 mi NE 16.1 mph 28.8 mph N/A   Scattered Clouds
2:54 PM 78.1 °F 19.8 °F 11% 30.06 in 7.0 mi NE 18.4 mph 31.1 mph N/A   Partly Cloudy
3:54 PM 81.7 °F 23.9 °F 12% 30.08 in 7.0 mi NE 15.0 mph 26.5 mph N/A   Partly Cloudy
4:54 PM 78.8 °F 40.6 °F 26% 30.09 in 7.0 mi NE 11.5 mph 19.6 mph N/A   Partly Cloudy
5:54 PM 70.5 °F 19.4 °F 14% 30.10 in 7.0 mi NE 12.7 mph 19.6 mph N/A   Partly Cloudy
6:54 PM 69.1 °F 18.0 °F 14% 30.12 in 7.0 mi NE 10.4 mph - N/A   Partly Cloudy
7:54 PM 70.9 °F 18.1 °F 13% 30.12 in 7.0 mi ENE 10.4 mph - N/A   Partly Cloudy
8:54 PM 68.5 °F 17.8 °F 14% 30.13 in 7.0 mi NE 10.4 mph - N/A   Partly Cloudy
9:54 PM 68.7 °F 16.9 °F 14% 30.13 in 7.0 mi ENE 11.5 mph 18.4 mph N/A   Partly Cloudy
10:54 PM 64.9 °F 18.0 °F 16% 30.13 in 7.0 mi NE 12.7 mph - N/A   Partly Cloudy
11:54 PM 64.9 °F 60.1 °F 84% 30.13 in - ENE 11.5 mph 20.7 mph N/A   Clear